sat.trackr.live / text

‹ back to catalog

STARLINK-34125

NORAD 63901 · 2025-095M

PAYLOAD ACTIVE UNKNOWN

§ Identity

Operator
Country
US
Launch date
2025-05-10
Launch site
AFETR
Launch vehicle
Mass (kg)
RCS (m²)

Purposes: comms

External: N2YO · Heavens-Above · Gunter

§ Orbital elements

Epoch: 2026-09-20T23:20:31.468416Z

Period
94.27 min
Inclination
42.9993°
Eccentricity
0.0001445
Mean motion
15.27593377 rev/d
Perigee alt
482.0 km
Apogee alt
484.0 km
Semi-major
6,861.1 km
B*
6.4427e-4
RAAN
153.3738°
Arg perigee
271.7483°
Mean anomaly
88.3203°
Rev number
7,764

§ Raw data

STARLINK-341251 63901U 25095M   26263.97258644  .00017516  00000+0  64427-3 0  99992 63901  42.9993 153.3738 0001445 271.7483  88.3203 15.27593377 77640

JSON: /api/v1/satellites/63901 · /tle

For live sub-satellite position, see the globe view (requires WebGL).

§ Visibility from observer

Set your observer location to see the next 7 days of passes ≥ 10°. The values pass through the URL so the page stays shareable.

No JS? Fill the form by hand. The geolocation button needs JavaScript.